�������l�o���
Date,Time,MP-1(��Sv/h),MP-2(��Sv/h),MP-3(��Sv/h),MP-4(��Sv/h),MP-5(��Sv/h),MP-6(��Sv/h),MP-7(��Sv/h),MP-8(��Sv/h),����,����(m/s),���J
2020/03/07,00:00,0.686,0.987,0.663,1.203,0.864,0.396,0.693,0.660,�k�k��,5.8,��
2020/03/07,00:10,0.688,0.986,0.662,1.204,0.865,0.398,0.693,0.658,�k��,5.5,��
2020/03/07,00:20,0.685,0.988,0.662,1.206,0.865,0.397,0.692,0.658,�k��,5.6,��
2020/03/07,00:30,0.684,0.988,0.661,1.206,0.866,0.396,0.691,0.661,�k��,6.4,��
2020/03/07,00:40,0.684,0.989,0.661,1.207,0.864,0.396,0.691,0.659,�k��,5.2,��
2020/03/07,00:50,0.685,0.988,0.662,1.207,0.865,0.395,0.692,0.660,�k��,5.0,��
2020/03/07,01:00,0.685,0.987,0.662,1.205,0.864,0.396,0.692,0.659,���k��,5.7,��
2020/03/07,01:10,0.686,0.985,0.663,1.206,0.863,0.395,0.693,0.658,�k��,5.5,��
2020/03/07,01:20,0.686,0.986,0.663,1.205,0.865,0.395,0.693,0.660,�k��,5.9,��
2020/03/07,01:30,0.686,0.988,0.663,1.208,0.867,0.396,0.691,0.660,�k��,7.1,��
2020/03/07,01:40,0.685,0.986,0.660,1.204,0.865,0.397,0.691,0.661,�k��,6.7,��
2020/03/07,01:50,0.687,0.988,0.662,1.205,0.866,0.396,0.694,0.661,�k��,5.3,��
2020/03/07,02:00,0.687,0.985,0.662,1.205,0.863,0.395,0.692,0.660,�k��,6.9,��
2020/03/07,02:10,0.687,0.987,0.661,1.207,0.865,0.396,0.692,0.659,�k��,6.5,��
2020/03/07,02:20,0.684,0.986,0.662,1.207,0.865,0.395,0.692,0.660,�k��,5.7,��
2020/03/07,02:30,0.685,0.987,0.661,1.205,0.865,0.396,0.692,0.659,�k��,5.7,��
2020/03/07,02:40,0.687,0.989,0.663,1.206,0.865,0.395,0.694,0.660,�k��,5.9,��
2020/03/07,02:50,0.685,0.987,0.662,1.205,0.863,0.395,0.694,0.661,�k��,5.6,��
2020/03/07,03:00,0.686,0.988,0.662,1.205,0.864,0.396,0.695,0.661,�k��,5.3,��
2020/03/07,03:10,0.684,0.989,0.661,1.206,0.865,0.394,0.694,0.660,���k��,3.1,��
2020/03/07,03:20,0.686,0.986,0.662,1.205,0.864,0.395,0.693,0.661,��,2.3,��
2020/03/07,03:30,0.686,0.986,0.661,1.206,0.864,0.396,0.693,0.661,��,4.4,��
2020/03/07,03:40,0.685,0.986,0.662,1.204,0.865,0.396,0.693,0.659,���k��,6.1,��
2020/03/07,03:50,0.683,0.986,0.662,1.207,0.865,0.396,0.693,0.660,���k��,5.0,��
2020/03/07,04:00,0.687,0.986,0.661,1.206,0.862,0.396,0.692,0.659,���k��,4.9,��
2020/03/07,04:10,0.686,0.987,0.661,1.206,0.865,0.395,0.693,0.659,���k��,5.7,��
2020/03/07,04:20,0.685,0.986,0.661,1.205,0.865,0.395,0.692,0.660,���k��,5.2,��
2020/03/07,04:30,0.685,0.986,0.661,1.209,0.864,0.395,0.693,0.660,��,5.1,��
2020/03/07,04:40,0.685,0.987,0.663,1.206,0.865,0.395,0.692,0.659,���k��,5.7,��
2020/03/07,04:50,0.685,0.984,0.661,1.206,0.864,0.396,0.694,0.659,���k��,4.4,��
2020/03/07,05:00,0.688,0.985,0.660,1.208,0.863,0.396,0.693,0.661,���k��,3.4,��
2020/03/07,05:10,0.686,0.985,0.661,1.206,0.863,0.395,0.695,0.660,-,CALM,��
2020/03/07,05:20,0.685,0.987,0.661,1.207,0.864,0.395,0.693,0.660,�k��,4.0,��
2020/03/07,05:30,0.685,0.984,0.659,1.207,0.864,0.394,0.693,0.660,���k��,5.0,��
2020/03/07,05:40,0.685,0.986,0.662,1.204,0.864,0.395,0.691,0.659,���k��,4.5,��
2020/03/07,05:50,0.686,0.987,0.660,1.206,0.863,0.396,0.693,0.659,���k��,5.6,��
2020/03/07,06:00,0.684,0.987,0.660,1.208,0.864,0.395,0.693,0.660,���k��,6.8,��
2020/03/07,06:10,0.685,0.985,0.661,1.205,0.862,0.394,0.692,0.660,�k��,6.3,��
2020/03/07,06:20,0.684,0.986,0.663,1.205,0.862,0.395,0.693,0.659,���k��,7.3,��
2020/03/07,06:30,0.684,0.986,0.661,1.206,0.863,0.395,0.692,0.658,�k��,7.7,��
2020/03/07,06:40,0.685,0.984,0.662,1.206,0.863,0.396,0.693,0.659,���k��,8.7,��
2020/03/07,06:50,0.686,0.986,0.662,1.206,0.864,0.395,0.694,0.661,�k��,7.6,��
2020/03/07,07:00,0.685,0.986,0.660,1.206,0.863,0.395,0.695,0.660,���k��,5.6,��
2020/03/07,07:10,0.686,0.986,0.662,1.203,0.865,0.397,0.695,0.662,�k��,5.9,��
2020/03/07,07:20,0.686,0.986,0.660,1.207,0.865,0.396,0.693,0.660,�k��,5.9,��
2020/03/07,07:30,0.684,0.987,0.662,1.207,0.865,0.396,0.696,0.660,�k��,6.6,��
2020/03/07,07:40,0.687,0.986,0.660,1.207,0.865,0.396,0.695,0.661,�k��,6.5,��
2020/03/07,07:50,0.685,0.988,0.661,1.208,0.864,0.398,0.696,0.660,�k��,7.2,��
2020/03/07,08:00,0.687,0.987,0.660,1.205,0.863,0.396,0.695,0.661,�k��,6.0,��
2020/03/07,08:10,0.686,0.987,0.661,1.207,0.865,0.395,0.696,0.662,�k��,4.3,��
2020/03/07,08:20,0.686,0.985,0.663,1.208,0.864,0.396,0.695,0.661,�k��,7.2,��
2020/03/07,08:30,0.687,0.988,0.660,1.207,0.866,0.396,0.694,0.662,�k��,5.8,��
2020/03/07,08:40,0.687,0.987,0.663,1.207,0.866,0.397,0.696,0.662,�k��,6.4,��
2020/03/07,08:50,0.688,0.988,0.662,1.209,0.867,0.397,0.695,0.661,�k��,3.9,��
2020/03/07,09:00,0.688,0.987,0.662,1.207,0.865,0.398,0.695,0.660,�k�k��,5.7,��
2020/03/07,09:10,0.687,0.983,0.664,1.208,0.866,0.396,0.695,0.661,�k��,5.8,��
2020/03/07,09:20,0.689,0.981,0.662,1.207,0.864,0.397,0.695,0.660,�k��,4.6,��
2020/03/07,09:30,0.688,0.982,0.662,1.210,0.867,0.398,0.695,0.661,�k,4.6,��
2020/03/07,09:40,0.687,0.983,0.662,1.207,0.866,0.397,0.693,0.661,�k,4.1,��
2020/03/07,09:50,0.687,0.987,0.662,1.207,0.867,0.398,0.694,0.661,�k�k��,4.3,��
2020/03/07,10:00,0.689,0.985,0.664,1.208,0.865,0.398,0.693,0.661,�k��,5.5,��
2020/03/07,10:10,0.687,0.987,0.663,1.207,0.867,0.399,0.694,0.663,�k��,6.1,��
2020/03/07,10:20,0.687,0.985,0.662,1.211,0.865,0.398,0.695,0.661,�k��,6.5,��
2020/03/07,10:30,0.687,0.985,0.663,1.209,0.866,0.397,0.694,0.660,�k��,7.3,��
2020/03/07,10:40,0.689,0.984,0.662,1.211,0.867,0.397,0.694,0.661,���k��,7.6,��
2020/03/07,10:50,0.687,0.989,0.664,1.211,0.867,0.398,0.695,0.660,���k��,7.8,��
2020/03/07,11:00,0.688,0.985,0.663,1.211,0.869,0.398,0.692,0.661,�k��,7.4,��
2020/03/07,11:10,0.688,0.985,0.661,1.212,0.868,0.397,0.691,0.660,���k��,6.6,��
2020/03/07,11:20,0.689,0.986,0.662,1.208,0.866,0.396,0.694,0.659,���k��,6.2,��
2020/03/07,11:30,0.688,0.986,0.661,1.209,0.867,0.397,0.694,0.658,���k��,5.8,��
2020/03/07,11:40,0.688,0.984,0.664,1.209,0.867,0.396,0.692,0.660,���k��,5.3,��
2020/03/07,11:50,0.692,0.988,0.664,1.210,0.867,0.398,0.693,0.660,���k��,4.6,��
2020/03/07,12:00,0.689,0.987,0.664,1.211,0.869,0.397,0.693,0.660,���k��,3.9,��
2020/03/07,12:10,0.689,0.988,0.665,1.208,0.868,0.397,0.694,0.659,���k��,4.1,��
2020/03/07,12:20,0.691,0.988,0.663,1.209,0.869,0.398,0.693,0.661,���k��,4.1,��
2020/03/07,12:30,0.691,0.989,0.666,1.210,0.866,0.399,0.694,0.659,���k��,4.1,��
2020/03/07,12:40,0.688,0.987,0.665,1.211,0.869,0.400,0.693,0.660,���k��,4.5,��
2020/03/07,12:50,0.690,0.988,0.663,1.211,0.870,0.396,0.692,0.661,���k��,4.5,��
2020/03/07,13:00,0.690,0.987,0.664,1.210,0.871,0.397,0.693,0.661,��,4.3,��
2020/03/07,13:10,0.689,0.988,0.662,1.210,0.870,0.398,0.694,0.661,��,4.0,��
2020/03/07,13:20,0.689,0.988,0.662,1.212,0.869,0.399,0.694,0.663,��,4.4,��
2020/03/07,13:30,0.690,0.987,0.666,1.213,0.870,0.398,0.692,0.660,��,4.2,��
2020/03/07,13:40,0.690,0.989,0.664,1.211,0.866,0.401,0.693,0.659,��,4.4,��
2020/03/07,13:50,0.689,0.991,0.662,1.210,0.869,0.399,0.692,0.659,��,4.0,��
2020/03/07,14:00,0.692,0.994,0.664,1.211,0.871,0.399,0.693,0.660,���쓌,3.5,��
2020/03/07,14:10,0.692,0.990,0.664,1.212,0.868,0.398,0.693,0.660,��,3.4,��
2020/03/07,14:20,0.693,0.991,0.663,1.211,0.869,0.399,0.693,0.660,��,4.0,��
2020/03/07,14:30,0.688,0.990,0.664,1.211,0.868,0.398,0.694,0.659,�쓌,4.1,��
2020/03/07,14:40,0.691,0.989,0.664,1.210,0.870,0.399,0.692,0.659,�쓌,4.5,��
2020/03/07,14:50,0.689,0.991,0.663,1.210,0.870,0.399,0.692,0.659,���쓌,4.1,��
2020/03/07,15:00,0.689,0.990,0.663,1.210,0.869,0.397,0.692,0.658,�쓌,4.5,��
2020/03/07,15:10,0.688,0.991,0.665,1.209,0.869,0.398,0.692,0.658,�쓌,4.7,��
2020/03/07,15:20,0.690,0.994,0.666,1.209,0.872,0.398,0.694,0.658,���쓌,3.6,��
2020/03/07,15:30,0.690,0.996,0.665,1.212,0.872,0.398,0.693,0.658,�쓌,3.9,��
2020/03/07,15:40,0.691,0.997,0.665,1.211,0.870,0.399,0.692,0.661,���쓌,3.8,��
2020/03/07,15:50,0.691,0.993,0.665,1.211,0.872,0.398,0.693,0.661,�쓌,4.0,��
2020/03/07,16:00,0.693,0.996,0.666,1.210,0.874,0.399,0.692,0.661,�쓌,3.7,��
2020/03/07,16:10,0.690,0.995,0.664,1.211,0.872,0.398,0.693,0.662,�쓌,3.7,��
2020/03/07,16:20,0.691,0.996,0.665,1.213,0.873,0.398,0.693,0.661,�쓌,3.4,��
2020/03/07,16:30,0.692,0.999,0.666,1.210,0.872,0.399,0.694,0.662,���쓌,3.9,��
2020/03/07,16:40,0.691,0.999,0.664,1.207,0.872,0.399,0.693,0.663,�쓌,3.9,��
2020/03/07,16:50,0.693,0.999,0.667,1.211,0.871,0.398,0.695,0.661,�쓌,4.6,��
2020/03/07,17:00,0.691,0.998,0.665,1.212,0.871,0.397,0.696,0.660,�쓌,4.3,��
2020/03/07,17:10,0.691,0.998,0.665,1.212,0.871,0.399,0.694,0.660,�쓌,3.3,��
2020/03/07,17:20,0.689,0.998,0.664,1.212,0.870,0.398,0.693,0.661,�쓌,4.7,��
2020/03/07,17:30,0.690,0.998,0.665,1.213,0.871,0.399,0.697,0.663,���쓌,3.8,��
2020/03/07,17:40,0.690,0.998,0.665,1.209,0.871,0.397,0.694,0.662,�쓌,3.0,��
2020/03/07,17:50,0.689,1.000,0.666,1.212,0.872,0.399,0.694,0.662,��쓌,3.6,��
2020/03/07,18:00,0.692,0.999,0.666,1.212,0.873,0.398,0.695,0.662,��쓌,3.5,��
2020/03/07,18:10,0.690,0.997,0.665,1.211,0.871,0.399,0.695,0.662,��쓌,4.3,��
2020/03/07,18:20,0.690,0.998,0.666,1.211,0.872,0.398,0.696,0.660,�쓌,3.2,��
2020/03/07,18:30,0.690,0.998,0.665,1.211,0.872,0.399,0.695,0.661,�쓌,3.6,��
2020/03/07,18:40,0.691,0.998,0.666,1.213,0.872,0.399,0.696,0.661,��쓌,3.6,��
2020/03/07,18:50,0.691,0.997,0.666,1.211,0.873,0.397,0.697,0.662,��쓌,3.9,��
2020/03/07,19:00,0.693,0.997,0.668,1.211,0.872,0.399,0.695,0.660,��쓌,4.0,��
2020/03/07,19:10,0.690,0.998,0.664,1.209,0.873,0.398,0.696,0.660,��쓌,3.9,��
2020/03/07,19:20,0.692,0.999,0.666,1.213,0.871,0.399,0.694,0.661,�쓌,4.0,��
2020/03/07,19:30,0.692,1.001,0.667,1.213,0.871,0.399,0.693,0.662,��쓌,4.2,��
2020/03/07,19:40,0.690,1.000,0.665,1.212,0.873,0.398,0.696,0.663,�쓌,4.4,��
2020/03/07,19:50,0.692,0.998,0.665,1.211,0.872,0.399,0.694,0.661,��쓌,4.9,��
2020/03/07,20:00,0.689,0.998,0.666,1.212,0.873,0.398,0.694,0.662,�쓌,3.3,��
2020/03/07,20:10,0.690,0.999,0.666,1.209,0.875,0.399,0.695,0.663,�쓌,4.0,��
2020/03/07,20:20,0.691,1.000,0.667,1.215,0.872,0.398,0.694,0.662,�쓌,3.9,��
2020/03/07,20:30,0.691,1.000,0.666,1.212,0.874,0.398,0.694,0.661,��쓌,3.3,��
2020/03/07,20:40,0.690,0.998,0.667,1.213,0.872,0.398,0.695,0.661,��쓌,2.8,��
2020/03/07,20:50,0.688,0.999,0.667,1.212,0.872,0.399,0.693,0.661,��쓌,3.5,��
2020/03/07,21:00,0.690,1.000,0.666,1.210,0.873,0.398,0.696,0.663,��쓌,3.4,��
2020/03/07,21:10,0.690,0.996,0.666,1.210,0.874,0.399,0.693,0.662,��쓌,3.8,��
2020/03/07,21:20,0.691,0.997,0.665,1.211,0.872,0.398,0.694,0.662,�쓌,3.2,��
2020/03/07,21:30,0.689,0.999,0.667,1.211,0.873,0.399,0.694,0.662,�쓌,3.5,��
2020/03/07,21:40,0.691,0.998,0.666,1.211,0.870,0.399,0.694,0.660,�쓌,3.1,��
2020/03/07,21:50,0.691,0.997,0.665,1.212,0.875,0.398,0.692,0.662,�쓌,2.6,��
2020/03/07,22:00,0.691,1.000,0.665,1.211,0.873,0.398,0.694,0.662,�쓌,2.3,��
2020/03/07,22:10,0.690,0.997,0.666,1.211,0.873,0.399,0.695,0.662,�쓌,2.3,��
2020/03/07,22:20,0.690,0.998,0.663,1.213,0.873,0.399,0.695,0.661,��쓌,2.9,��
2020/03/07,22:30,0.690,0.999,0.665,1.212,0.873,0.399,0.694,0.661,�쓌,3.2,��
2020/03/07,22:40,0.690,1.000,0.667,1.212,0.874,0.398,0.694,0.663,��,2.0,��
2020/03/07,22:50,0.691,0.998,0.668,1.211,0.872,0.400,0.693,0.661,��,2.0,��
2020/03/07,23:00,0.689,1.000,0.668,1.211,0.871,0.398,0.694,0.662,��쓌,2.3,��
2020/03/07,23:10,0.692,0.998,0.668,1.210,0.872,0.399,0.694,0.660,��쓌,2.0,��
2020/03/07,23:20,0.690,1.000,0.669,1.212,0.873,0.400,0.695,0.661,��,2.2,��
2020/03/07,23:30,0.690,0.999,0.667,1.213,0.873,0.400,0.696,0.661,��쓌,2.0,��
2020/03/07,23:40,0.688,0.999,0.667,1.213,0.870,0.399,0.696,0.661,�쓌,1.2,��
2020/03/07,23:50,0.690,0.999,0.667,1.210,0.874,0.400,0.695,0.660,��쓌,0.9,��
